^^
Saratoga-Weather Station Historical Data
Daily Summary for December 3, 2020 Units:  English    Metric   Both
Daily Weekly Monthly Yearly Custom
  High: Low: Average:
Temperature: 40.8 °F 35.1 °F 38.1 °F
Dew Point: 38.8 °F 33.8 °F 36.3 °F
Humidity: 95% 89% 93%
Wind Speed: 8.9mph 0mph 2.2mph
Wind Gust: 13mph - -
Wind- - East
Pressure: 29.9 in 29.1 in -
Precipitation: 0.08 in    
Historical Graphs
 
 
Tabular Data for December 3, 2020
Time Temperature Dew Point Pressure Wind Wind Speed Wind Gust Humidity Rainfall Rate (Hourly) solar
00:02 35.1 °F 33.8 °F 29.9 in Calm     95% 0.02 in 0 W/m2
00:07 35.1 °F 33.8 °F 29.9 in Calm     95% 0.02 in 0 W/m2
00:12 35.1 °F 33.8 °F 29.9 in Calm     95% 0.02 in 0 W/m2
00:17 35.1 °F 33.8 °F 29.9 in Calm     95% 0.02 in 0 W/m2
00:22 35.1 °F 33.8 °F 29.9 in East 0.9 mph 1 mph 95% 0.02 in 0 W/m2
00:27 35.1 °F 33.8 °F 29.9 in Calm   1 mph 95% 0.02 in 0 W/m2
00:32 35.1 °F 33.8 °F 29.9 in Calm   1 mph 95% 0.02 in 0 W/m2
00:37 35.1 °F 33.8 °F 29.9 in NE 2 mph 3 mph 95% 0.02 in 0 W/m2
00:42 35.2 °F 34 °F 29.9 in Calm   1 mph 95% 0.02 in 0 W/m2
00:48 35.2 °F 34 °F 29.9 in Calm   3 mph 95% 0.02 in 0 W/m2
00:53 35.2 °F 34 °F 29.9 in East 2.9 mph 4 mph 95% 0.01 in 0 W/m2
00:58 35.2 °F 34 °F 29.9 in Calm   3 mph 95% 0.01 in 0 W/m2
01:03 35.2 °F 34 °F 29.9 in Calm   5 mph 95% 0.01 in 0 W/m2
01:08 35.2 °F 34 °F 29.9 in Calm   2 mph 95% 0.01 in 0 W/m2
01:13 35.2 °F 34 °F 29.9 in NNE 0.9 mph 5 mph 95% 0.01 in 0 W/m2
01:18 35.2 °F 34 °F 29.9 in NW 0.9 mph 2 mph 95% 0.01 in 0 W/m2
01:23 35.4 °F 34.2 °F 29.9 in NNW 0.9 mph 5 mph 95% 0.01 in 0 W/m2
01:28 35.4 °F 34.2 °F 29.9 in ENE 2 mph 2 mph 95% 0.01 in 0 W/m2
01:33 35.4 °F 34.2 °F 29.9 in NE 0.9 mph 5 mph 95% 0 in 0 W/m2
01:38 35.4 °F 34.2 °F 29.9 in Calm   2 mph 95% 0 in 0 W/m2
01:43 35.4 °F 34.2 °F 29.9 in Calm   4 mph 95% 0 in 0 W/m2
01:48 35.6 °F 34.3 °F 29.9 in NE 0.9 mph 2 mph 95% 0 in 0 W/m2
01:53 35.6 °F 34.3 °F 29.9 in Calm   3 mph 95% 0 in 0 W/m2
01:58 35.6 °F 34.3 °F 29.9 in Calm   1 mph 95% 0 in 0 W/m2
02:03 35.6 °F 34.3 °F 29.9 in ENE 0.9 mph 3 mph 95% 0 in 0 W/m2
02:08 35.6 °F 34.3 °F 29.9 in East 2 mph 2 mph 95% 0 in 0 W/m2
02:13 35.8 °F 34.5 °F 29.9 in East 0.9 mph 1 mph 95% 0 in 0 W/m2
02:18 35.8 °F 34.5 °F 29.8 in East 2.9 mph 4 mph 95% 0 in 0 W/m2
02:23 35.8 °F 34.5 °F 29.8 in ESE 2 mph 3 mph 95% 0 in 0 W/m2
02:28 35.8 °F 34.5 °F 29.8 in Calm   1 mph 95% 0 in 0 W/m2
02:33 35.8 °F 34.5 °F 29.8 in SSW 0.9 mph 2 mph 95% 0 in 0 W/m2
02:38 35.8 °F 34.5 °F 29.8 in West 0.9 mph 2 mph 95% 0 in 0 W/m2
02:43 35.8 °F 34.5 °F 29.8 in Calm   1 mph 95% 0 in 0 W/m2
02:48 35.8 °F 34.5 °F 29.8 in NNE 2 mph 3 mph 95% 0 in 0 W/m2
02:53 35.8 °F 34.5 °F 29.8 in Calm   1 mph 95% 0 in 0 W/m2
02:58 36 °F 34.7 °F 29.8 in West 0.9 mph 3 mph 95% 0 in 0 W/m2
03:03 36 °F 34.7 °F 29.8 in Calm   1 mph 95% 0 in 0 W/m2
03:08 36 °F 34.7 °F 29.8 in NNW 2 mph 3 mph 95% 0 in 0 W/m2
03:13 36 °F 34.7 °F 29.8 in WSW 2.9 mph 3 mph 95% 0 in 0 W/m2
03:18 36 °F 34.7 °F 29.8 in NW 0.9 mph 2 mph 95% 0 in 0 W/m2
03:23 36 °F 34.7 °F 29.8 in Calm   1 mph 95% 0 in 0 W/m2
03:28 36 °F 34.3 °F 29.8 in Calm   2 mph 94% 0 in 0 W/m2
03:33 36 °F 34.3 °F 29.8 in SE 0.9 mph 3 mph 94% 0 in 0 W/m2
03:38 36 °F 34.3 °F 29.8 in South 2 mph 3 mph 94% 0 in 0 W/m2
03:43 36 °F 34.3 °F 29.8 in Calm   1 mph 94% 0 in 0 W/m2
03:48 36 °F 34.3 °F 29.8 in South 2 mph 3 mph 94% 0 in 0 W/m2
03:53 36 °F 34.3 °F 29.8 in WNW 2 mph 3 mph 94% 0 in 0 W/m2
03:58 36 °F 34.3 °F 29.8 in Calm   2 mph 94% 0 in 0 W/m2
04:03 36 °F 34.3 °F 29.8 in Calm   2 mph 94% 0 in 0 W/m2
04:08 36 °F 34.3 °F 29.8 in Calm   2 mph 94% 0 in 0 W/m2
04:13 36 °F 34.3 °F 29.8 in NE 0.9 mph 3 mph 94% 0 in 0 W/m2
04:18 36 °F 34.3 °F 29.8 in Calm   1 mph 94% 0 in 0 W/m2
04:23 36 °F 34.3 °F 29.8 in Calm   2 mph 94% 0 in 0 W/m2
04:28 36 °F 34.3 °F 29.8 in ENE 2 mph 2 mph 94% 0 in 0 W/m2
04:33 36 °F 34.3 °F 29.8 in Calm   2 mph 94% 0 in 0 W/m2
04:38 36 °F 34.3 °F 29.8 in ESE 0.9 mph 3 mph 94% 0 in 0 W/m2
04:43 36 °F 34.3 °F 29.8 in South 2 mph 2 mph 94% 0 in 0 W/m2
04:48 36 °F 34.3 °F 29.8 in Calm   3 mph 94% 0 in 0 W/m2
04:53 36 °F 34.3 °F 29.8 in ESE 0.9 mph 2 mph 94% 0 in 0 W/m2
04:58 36 °F 34.3 °F 29.8 in Calm   2 mph 94% 0 in 0 W/m2
05:03 36 °F 34.3 °F 29.8 in SSW 0.9 mph 3 mph 94% 0 in 0 W/m2
05:08 36.1 °F 34.5 °F 29.8 in Calm   1 mph 94% 0 in 0 W/m2
05:13 36.1 °F 34.5 °F 29.8 in Calm   1 mph 94% 0 in 0 W/m2
05:18 36.1 °F 34.5 °F 29.8 in ENE 0.9 mph 3 mph 94% 0 in 0 W/m2
05:23 36.1 °F 34.5 °F 29.8 in NNE 2 mph 4 mph 94% 0 in 0 W/m2
05:28 36.1 °F 34.5 °F 29.8 in Calm   1 mph 94% 0 in 0 W/m2
05:33 36.1 °F 34.5 °F 29.8 in ESE 0.9 mph 4 mph 94% 0 in 0 W/m2
05:38 36.3 °F 34.7 °F 29.8 in SE 0.9 mph 6 mph 94% 0 in 0 W/m2
05:43 36.3 °F 34.7 °F 29.8 in Calm   2 mph 94% 0 in 0 W/m2
05:48 36.3 °F 34.7 °F 29.8 in ENE 2 mph 2 mph 94% 0 in 0 W/m2
05:53 36.3 °F 34.7 °F 29.8 in NNE 0.9 mph 4 mph 94% 0 in 0 W/m2
05:58 36.3 °F 34.7 °F 29.8 in Calm   3 mph 94% 0 in 0 W/m2
06:03 36.3 °F 34.7 °F 29.8 in ENE 0.9 mph 3 mph 94% 0 in 0 W/m2
06:08 36.3 °F 34.7 °F 29.8 in Calm   3 mph 94% 0 in 0 W/m2
06:13 36.5 °F 34.9 °F 29.8 in Calm   4 mph 94% 0 in 0 W/m2
06:18 36.5 °F 34.9 °F 29.8 in ENE 0.9 mph 2 mph 94% 0 in 0 W/m2
06:23 36.5 °F 34.9 °F 29.8 in Calm   4 mph 94% 0 in 0 W/m2
06:28 36.5 °F 35.2 °F 29.7 in Calm   6 mph 95% 0 in 0 W/m2
06:33 36.7 °F 35.4 °F 29.7 in East 2 mph 3 mph 95% 0 in 0 W/m2
06:38 36.7 °F 35.4 °F 29.7 in East 4 mph 6 mph 95% 0 in 0 W/m2
06:43 36.7 °F 35.4 °F 29.7 in Calm   2 mph 95% 0 in 0 W/m2
06:48 36.7 °F 35.4 °F 29.7 in East 4 mph 4 mph 95% 0 in 0 W/m2
06:53 36.7 °F 35.4 °F 29.7 in East 2 mph 2 mph 95% 0 in 0 W/m2
06:58 36.9 °F 35.6 °F 29.7 in NNE 2.9 mph 3 mph 95% 0 in 0 W/m2
07:03 36.9 °F 35.6 °F 29.7 in NE 0.9 mph 3 mph 95% 0 in 0 W/m2
07:08 36.9 °F 35.6 °F 29.7 in Calm   1 mph 95% 0 in 0 W/m2
07:13 36.9 °F 35.6 °F 29.7 in East 2.9 mph 4 mph 95% 0 in 0 W/m2
07:18 36.9 °F 35.6 °F 29.7 in ENE 0.9 mph 6 mph 95% 0 in 0 W/m2
07:23 36.9 °F 35.6 °F 29.7 in NNW 0.9 mph 2 mph 95% 0 in 0 W/m2
07:28 36.9 °F 35.6 °F 29.7 in NNE 0.9 mph 2 mph 95% 0 in 0 W/m2
07:33 36.9 °F 35.6 °F 29.7 in East 2.9 mph 3 mph 95% 0 in 0 W/m2
07:38 36.9 °F 35.6 °F 29.7 in East 2 mph 2 mph 95% 0 in 0 W/m2
07:43 36.9 °F 35.6 °F 29.7 in East 2.9 mph 3 mph 95% 0 in 0 W/m2
07:48 36.9 °F 35.6 °F 29.7 in East 2.9 mph 3 mph 95% 0 in 0 W/m2
07:53 36.7 °F 35.4 °F 29.7 in NE 2.9 mph 3 mph 95% 0 in 0 W/m2
07:58 36.7 °F 35.4 °F 29.7 in ENE 0.9 mph 3 mph 95% 0 in 0 W/m2
08:03 36.7 °F 35.4 °F 29.7 in Calm   2 mph 95% 0 in 0 W/m2
08:08 36.9 °F 35.6 °F 29.7 in ENE 4 mph 5 mph 95% 0 in 0 W/m2
08:13 36.9 °F 35.6 °F 29.7 in East 2 mph 3 mph 95% 0 in 0 W/m2
08:18 36.9 °F 35.6 °F 29.7 in SE 2.9 mph 4 mph 95% 0 in 0 W/m2
08:23 36.7 °F 35.4 °F 29.7 in ENE 2 mph 4 mph 95% 0 in 0 W/m2
08:28 36.7 °F 35.4 °F 29.7 in ENE 0.9 mph 6 mph 95% 0 in 0 W/m2
08:33 36.5 °F 34.9 °F 29.7 in East 2 mph 4 mph 94% 0 in 0 W/m2
08:38 36.3 °F 34.7 °F 29.7 in Calm   6 mph 94% 0 in 0 W/m2
08:43 36.3 °F 35.1 °F 29.7 in East 2 mph 4 mph 95% 0 in 5 W/m2
08:48 36.3 °F 35.1 °F 29.7 in SE 2 mph 4 mph 95% 0 in 5 W/m2
08:53 36.5 °F 35.2 °F 29.7 in ENE 2.9 mph 7 mph 95% 0 in 5 W/m2
08:58 36.5 °F 35.2 °F 29.7 in Calm   7 mph 95% 0 in 5 W/m2
09:03 36.5 °F 35.2 °F 29.7 in ENE 2 mph 5 mph 95% 0 in 5 W/m2
09:08 36.7 °F 35.4 °F 29.7 in ESE 0.9 mph 7 mph 95% 0 in 9 W/m2
09:13 36.7 °F 35.4 °F 29.7 in ENE 2.9 mph 4 mph 95% 0 in 7 W/m2
09:18 36.9 °F 35.6 °F 29.7 in East 0.9 mph 3 mph 95% 0 in 9 W/m2
09:23 36.9 °F 35.6 °F 29.7 in NE 2.9 mph 3 mph 95% 0 in 11 W/m2
09:28 36.9 °F 35.6 °F 29.7 in ENE 0.9 mph 2 mph 95% 0 in 12 W/m2
09:33 37 °F 35.8 °F 29.7 in Calm   3 mph 95% 0 in 11 W/m2
09:38 37 °F 35.8 °F 29.7 in Calm   3 mph 95% 0 in 11 W/m2
09:43 37 °F 35.8 °F 29.7 in East 2 mph 4 mph 95% 0 in 11 W/m2
09:48 37.2 °F 36 °F 29.7 in East 2.9 mph 3 mph 95% 0 in 11 W/m2
09:53 37.2 °F 36 °F 29.7 in NE 0.9 mph 5 mph 95% 0 in 14 W/m2
09:58 37.2 °F 36 °F 29.7 in East 0.9 mph 4 mph 95% 0 in 19 W/m2
10:03 37.2 °F 35.6 °F 29.7 in ENE 2.9 mph 5 mph 94% 0 in 21 W/m2
10:08 37.2 °F 35.6 °F 29.7 in ENE 2 mph 3 mph 94% 0 in 21 W/m2
10:13 37.2 °F 35.6 °F 29.7 in East 2 mph 4 mph 94% 0 in 25 W/m2
10:19 37.4 °F 36.1 °F 29.7 in ENE 0.9 mph 5 mph 95% 0 in 32 W/m2
10:24 37.6 °F 36.3 °F 29.7 in ENE 0.9 mph 3 mph 95% 0 in 42 W/m2
10:29 37.8 °F 36.5 °F 29.7 in ENE 0.9 mph 2 mph 95% 0 in 76 W/m2
10:34 37.8 °F 36.5 °F 29.7 in ENE 2.9 mph 4 mph 95% 0 in 58 W/m2
10:39 37.9 °F 36.7 °F 29.7 in East 2 mph 5 mph 95% 0 in 49 W/m2
10:44 38.1 °F 36.5 °F 29.7 in NNE 0.9 mph 3 mph 94% 0 in 30 W/m2
10:49 38.1 °F 36.5 °F 29.7 in East 0.9 mph 2 mph 94% 0 in 33 W/m2
10:54 38.1 °F 36.5 °F 29.6 in ENE 0.9 mph 3 mph 94% 0 in 46 W/m2
10:59 38.1 °F 36.5 °F 29.6 in ESE 2 mph 3 mph 94% 0 in 54 W/m2
11:04 38.3 °F 36.7 °F 29.6 in NE 0.9 mph 2 mph 94% 0 in 42 W/m2
11:09 38.5 °F 36.9 °F 29.6 in ENE 0.9 mph 3 mph 94% 0 in 56 W/m2
11:14 38.5 °F 36.9 °F 29.6 in East 4 mph 5 mph 94% 0 in 51 W/m2
11:19 38.7 °F 37 °F 29.6 in NNE 2 mph 5 mph 94% 0 in 49 W/m2
11:24 38.7 °F 37 °F 29.6 in East 2 mph 4 mph 94% 0 in 42 W/m2
11:29 38.8 °F 37 °F 29.6 in East 2.9 mph 5 mph 93% 0 in 70 W/m2
11:34 38.8 °F 37 °F 29.6 in East 2.9 mph 3 mph 93% 0 in 53 W/m2
11:39 38.8 °F 37 °F 29.6 in ENE 2 mph 3 mph 93% 0 in 47 W/m2
11:44 38.8 °F 37 °F 29.6 in East 4 mph 4 mph 93% 0 in 42 W/m2
11:49 38.8 °F 37 °F 29.6 in SE 0.9 mph 4 mph 93% 0 in 44 W/m2
11:54 38.8 °F 37 °F 29.6 in East 2.9 mph 6 mph 93% 0 in 65 W/m2
11:59 38.8 °F 37.2 °F 29.6 in ENE 2.9 mph 8 mph 94% 0 in 69 W/m2
12:04 38.8 °F 37.2 °F 29.6 in ESE 2.9 mph 3 mph 94% 0 in 44 W/m2
12:09 38.8 °F 37 °F 29.6 in ENE 2.9 mph 8 mph 93% 0 in 40 W/m2
12:14 38.7 °F 36.9 °F 29.6 in East 4 mph 5 mph 93% 0 in 42 W/m2
12:19 38.7 °F 37 °F 29.6 in East 2 mph 4 mph 94% 0 in 40 W/m2
12:24 38.7 °F 37 °F 29.6 in ESE 0.9 mph 3 mph 94% 0 in 51 W/m2
12:29 38.7 °F 37 °F 29.6 in East 0.9 mph 5 mph 94% 0 in 42 W/m2
12:34 38.7 °F 37 °F 29.6 in East 2 mph 5 mph 94% 0 in 42 W/m2
12:39 38.5 °F 36.9 °F 29.6 in East 0.9 mph 8 mph 94% 0 in 42 W/m2
12:44 38.5 °F 36.9 °F 29.6 in East 2 mph 4 mph 94% 0 in 44 W/m2
12:49 38.5 °F 36.9 °F 29.6 in ESE 2 mph 8 mph 94% 0 in 40 W/m2
12:54 38.5 °F 36.9 °F 29.6 in NE 2.9 mph 5 mph 94% 0 in 33 W/m2
12:59 38.5 °F 36.9 °F 29.6 in ENE 4.9 mph 7 mph 94% 0 in 37 W/m2
13:04 38.5 °F 36.9 °F 29.6 in ESE 0.9 mph 9 mph 94% 0 in 37 W/m2
13:09 38.5 °F 36.9 °F 29.5 in ENE 2 mph 7 mph 94% 0 in 28 W/m2
13:14 38.5 °F 36.9 °F 29.5 in ESE 2.9 mph 9 mph 94% 0 in 35 W/m2
13:19 38.5 °F 36.9 °F 29.5 in North 0.9 mph 3 mph 94% 0 in 33 W/m2
13:24 38.7 °F 37 °F 29.5 in ESE 0.9 mph 5 mph 94% 0 in 32 W/m2
13:29 38.7 °F 37 °F 29.5 in ESE 2.9 mph 7 mph 94% 0 in 28 W/m2
13:34 38.7 °F 37 °F 29.5 in East 0.9 mph 5 mph 94% 0 in 30 W/m2
13:39 38.8 °F 37.2 °F 29.5 in ENE 0.9 mph 3 mph 94% 0 in 33 W/m2
13:44 38.8 °F 37.2 °F 29.5 in NE 2 mph 7 mph 94% 0 in 40 W/m2
13:49 39 °F 37.2 °F 29.5 in ENE 0.9 mph 4 mph 93% 0 in 37 W/m2
13:54 39.4 °F 37.6 °F 29.5 in East 2.9 mph 5 mph 93% 0 in 40 W/m2
13:59 39.4 °F 37.6 °F 29.5 in ENE 2 mph 4 mph 93% 0 in 39 W/m2
14:04 39.6 °F 37.4 °F 29.5 in SE 0.9 mph 7 mph 92% 0 in 33 W/m2
14:09 39.6 °F 37.4 °F 29.5 in East 2.9 mph 5 mph 92% 0 in 30 W/m2
14:14 39.7 °F 37.6 °F 29.5 in ENE 2 mph 7 mph 92% 0 in 30 W/m2
14:19 39.7 °F 37.6 °F 29.5 in East 4 mph 7 mph 92% 0 in 33 W/m2
14:24 39.7 °F 37.6 °F 29.5 in NE 2.9 mph 3 mph 92% 0 in 35 W/m2
14:29 39.7 °F 37.6 °F 29.5 in East 4 mph 7 mph 92% 0 in 37 W/m2
14:34 39.9 °F 37.8 °F 29.5 in Calm   6 mph 92% 0 in 30 W/m2
14:39 39.9 °F 37.6 °F 29.5 in ENE 2 mph 4 mph 91% 0 in 23 W/m2
14:44 39.9 °F 37.6 °F 29.5 in Calm   4 mph 91% 0 in 23 W/m2
14:49 39.9 °F 37.6 °F 29.5 in ESE 2 mph 6 mph 91% 0 in 19 W/m2
14:54 39.9 °F 37.6 °F 29.5 in ENE 2 mph 6 mph 91% 0 in 16 W/m2
14:59 40.1 °F 37.8 °F 29.5 in East 2 mph 4 mph 91% 0 in 12 W/m2
15:04 40.1 °F 37.8 °F 29.5 in NNE 2 mph 4 mph 91% 0 in 12 W/m2
15:09 40.1 °F 37.8 °F 29.5 in ENE 2.9 mph 8 mph 91% 0 in 11 W/m2
15:14 40.1 °F 37.8 °F 29.5 in East 8.1 mph 8 mph 91% 0 in 12 W/m2
15:19 40.1 °F 37.8 °F 29.5 in ENE 4 mph 5 mph 91% 0 in 12 W/m2
15:24 40.3 °F 37.9 °F 29.5 in ENE 2 mph 4 mph 91% 0 in 12 W/m2
15:29 40.3 °F 37.9 °F 29.5 in ENE 4 mph 7 mph 91% 0 in 12 W/m2
15:34 40.3 °F 37.9 °F 29.4 in ESE 4 mph 7 mph 91% 0 in 11 W/m2
15:39 40.3 °F 37.9 °F 29.4 in ENE 4 mph 5 mph 91% 0 in 11 W/m2
15:44 40.3 °F 37.9 °F 29.4 in ENE 2.9 mph 4 mph 91% 0 in 7 W/m2
15:49 40.3 °F 37.9 °F 29.4 in East 4 mph 5 mph 91% 0 in 5 W/m2
15:54 40.5 °F 38.1 °F 29.4 in East 2.9 mph 5 mph 91% 0 in 5 W/m2
15:59 40.5 °F 38.1 °F 29.4 in ENE 2 mph 6 mph 91% 0 in 5 W/m2
16:04 40.5 °F 38.1 °F 29.4 in East 2.9 mph 8 mph 91% 0 in 5 W/m2
16:09 40.5 °F 38.1 °F 29.4 in ENE 2 mph 5 mph 91% 0 in 5 W/m2
16:14 40.5 °F 38.1 °F 29.4 in East 4 mph 7 mph 91% 0 in 0 W/m2
16:19 40.6 °F 38.3 °F 29.4 in ENE 2.9 mph 6 mph 91% 0 in 0 W/m2
16:24 40.6 °F 38.3 °F 29.4 in East 4 mph 6 mph 91% 0 in 0 W/m2
16:29 40.6 °F 37.9 °F 29.4 in ENE 2 mph 7 mph 90% 0 in 0 W/m2
16:34 40.8 °F 38.1 °F 29.4 in East 4 mph 7 mph 90% 0 in 0 W/m2
16:39 40.8 °F 38.1 °F 29.4 in ESE 2.9 mph 7 mph 90% 0 in 0 W/m2
16:44 40.8 °F 38.1 °F 29.4 in ESE 2.9 mph 7 mph 90% 0 in 0 W/m2
16:49 40.8 °F 38.1 °F 29.4 in East 4 mph 8 mph 90% 0 in 0 W/m2
16:54 40.8 °F 38.1 °F 29.4 in ENE 2.9 mph 6 mph 90% 0 in 0 W/m2
16:59 40.8 °F 38.1 °F 29.4 in ESE 2 mph 4 mph 90% 0 in 0 W/m2
17:04 40.8 °F 38.1 °F 29.4 in East 4 mph 7 mph 90% 0 in 0 W/m2
17:09 40.8 °F 37.8 °F 29.4 in NNE 0.9 mph 11 mph 89% 0 in 0 W/m2
17:14 40.8 °F 37.8 °F 29.4 in East 6 mph 7 mph 89% 0 in 0 W/m2
17:19 40.8 °F 37.8 °F 29.4 in ENE 4.9 mph 11 mph 89% 0 in 0 W/m2
17:24 40.8 °F 37.8 °F 29.4 in ESE 6.9 mph 11 mph 89% 0 in 0 W/m2
17:29 40.8 °F 37.8 °F 29.4 in East 6 mph 11 mph 89% 0 in 0 W/m2
17:34 40.8 °F 37.8 °F 29.4 in ENE 4.9 mph 9 mph 89% 0 in 0 W/m2
17:39 40.8 °F 37.8 °F 29.4 in ENE 2 mph 11 mph 89% 0 in 0 W/m2
17:44 40.8 °F 37.8 °F 29.4 in NE 4 mph 9 mph 89% 0 in 0 W/m2
17:49 40.8 °F 37.8 °F 29.4 in NNE 0.9 mph 7 mph 89% 0 in 0 W/m2
17:54 40.8 °F 37.8 °F 29.4 in ENE 0.9 mph 7 mph 89% 0 in 0 W/m2
17:59 40.6 °F 37.6 °F 29.4 in East 6.9 mph 10 mph 89% 0 in 0 W/m2
18:04 40.6 °F 37.6 °F 29.4 in East 4 mph 7 mph 89% 0 in 0 W/m2
18:09 40.6 °F 37.6 °F 29.3 in NE 2.9 mph 9 mph 89% 0 in 0 W/m2
18:14 40.6 °F 37.6 °F 29.3 in ENE 4 mph 4 mph 89% 0 in 0 W/m2
18:19 40.6 °F 37.6 °F 29.3 in ENE 2 mph 7 mph 89% 0 in 0 W/m2
18:24 40.5 °F 37.4 °F 29.3 in East 6 mph 7 mph 89% 0 in 0 W/m2
18:29 40.5 °F 37.4 °F 29.3 in ESE 0.9 mph 3 mph 89% 0 in 0 W/m2
18:34 40.3 °F 37.6 °F 29.3 in East 4 mph 9 mph 90% 0 in 0 W/m2
18:39 40.3 °F 37.6 °F 29.3 in East 2 mph 5 mph 90% 0 in 0 W/m2
18:44 40.3 °F 37.6 °F 29.3 in ENE 2.9 mph 9 mph 90% 0 in 0 W/m2
18:49 40.1 °F 37.4 °F 29.3 in NNE 0.9 mph 5 mph 90% 0 in 0 W/m2
18:54 40.1 °F 37.4 °F 29.3 in ENE 4 mph 10 mph 90% 0 in 0 W/m2
18:59 39.9 °F 37.2 °F 29.3 in East 4.9 mph 5 mph 90% 0 in 0 W/m2
19:04 39.9 °F 37.2 °F 29.3 in ESE 4 mph 11 mph 90% 0 in 0 W/m2
19:09 39.9 °F 37.2 °F 29.3 in ESE 2.9 mph 6 mph 90% 0 in 0 W/m2
19:14 39.9 °F 37.2 °F 29.3 in ENE 2.9 mph 11 mph 90% 0 in 0 W/m2
19:19 39.7 °F 37 °F 29.3 in East 2.9 mph 9 mph 90% 0 in 0 W/m2
19:24 39.7 °F 37 °F 29.3 in South 0.9 mph 4 mph 90% 0 in 0 W/m2
19:29 39.7 °F 37 °F 29.3 in ENE 4.9 mph 8 mph 90% 0 in 0 W/m2
19:34 39.7 °F 37 °F 29.3 in SE 2 mph 6 mph 90% 0.01 in 0 W/m2
19:39 39.7 °F 37 °F 29.3 in East 2 mph 11 mph 90% 0.01 in 0 W/m2
19:44 39.7 °F 37 °F 29.3 in NE 4 mph 8 mph 90% 0.01 in 0 W/m2
19:49 39.7 °F 37 °F 29.3 in Calm   11 mph 90% 0.01 in 0 W/m2
19:55 39.7 °F 37.4 °F 29.3 in SE 0.9 mph 5 mph 91% 0.01 in 0 W/m2
20:00 39.6 °F 37.2 °F 29.3 in ESE 2 mph 11 mph 91% 0.02 in 0 W/m2
20:05 39.6 °F 37.2 °F 29.3 in ENE 2.9 mph 3 mph 91% 0.02 in 0 W/m2
20:10 39.6 °F 37.2 °F 29.3 in East 0.9 mph 11 mph 91% 0.02 in 0 W/m2
20:15 39.4 °F 37.2 °F 29.3 in SE 2.9 mph 6 mph 92% 0.02 in 0 W/m2
20:20 39.4 °F 37.2 °F 29.3 in ESE 0.9 mph 9 mph 92% 0.02 in 0 W/m2
20:25 39.4 °F 37.2 °F 29.3 in ENE 2.9 mph 7 mph 92% 0.02 in 0 W/m2
20:30 39.4 °F 37.2 °F 29.3 in East 2 mph 10 mph 92% 0.02 in 0 W/m2
20:35 39.4 °F 37.2 °F 29.3 in ENE 2 mph 5 mph 92% 0.02 in 0 W/m2
20:40 39.4 °F 37.2 °F 29.3 in East 6 mph 9 mph 92% 0.02 in 0 W/m2
20:45 39.4 °F 37.2 °F 29.3 in ENE 2 mph 8 mph 92% 0.02 in 0 W/m2
20:50 39.4 °F 37.2 °F 29.3 in ENE 2.9 mph 4 mph 92% 0.02 in 0 W/m2
20:55 39.4 °F 37.2 °F 29.2 in ENE 2.9 mph 8 mph 92% 0.02 in 0 W/m2
21:00 39.4 °F 37.2 °F 29.2 in ENE 2 mph 5 mph 92% 0.01 in 0 W/m2
21:05 39.4 °F 37.2 °F 29.2 in East 6 mph 6 mph 92% 0.01 in 0 W/m2
21:10 39.4 °F 37.2 °F 29.2 in East 2 mph 6 mph 92% 0.01 in 0 W/m2
21:15 39.4 °F 37.2 °F 29.2 in ENE 2.9 mph 8 mph 92% 0 in 0 W/m2
21:20 39.4 °F 37.2 °F 29.2 in ESE 4 mph 4 mph 92% 0 in 0 W/m2
21:25 39.4 °F 37.2 °F 29.2 in ENE 2 mph 8 mph 92% 0 in 0 W/m2
21:30 39.4 °F 37.2 °F 29.2 in East 6.9 mph 8 mph 92% 0 in 0 W/m2
21:35 39.6 °F 37.4 °F 29.2 in ENE 8.9 mph 9 mph 92% 0 in 0 W/m2
21:40 39.6 °F 37.4 °F 29.2 in East 4.9 mph 7 mph 92% 0 in 0 W/m2
21:45 39.6 °F 37.4 °F 29.2 in ESE 2 mph 7 mph 92% 0 in 0 W/m2
21:50 39.6 °F 37.4 °F 29.2 in NNE 4 mph 7 mph 92% 0.01 in 0 W/m2
21:55 39.6 °F 37.4 °F 29.2 in East 2 mph 6 mph 92% 0.01 in 0 W/m2
22:00 39.6 °F 37.8 °F 29.2 in East 8.1 mph 8 mph 93% 0.01 in 0 W/m2
22:05 39.6 °F 37.8 °F 29.2 in ENE 4.9 mph 13 mph 93% 0.01 in 0 W/m2
22:10 39.6 °F 37.8 °F 29.2 in NE 4 mph 7 mph 93% 0.01 in 0 W/m2
22:15 39.6 °F 37.8 °F 29.2 in NE 4 mph 13 mph 93% 0.01 in 0 W/m2
22:20 39.6 °F 37.8 °F 29.2 in East 2.9 mph 9 mph 93% 0.01 in 0 W/m2
22:25 39.6 °F 37.8 °F 29.2 in ENE 4 mph 8 mph 93% 0.02 in 0 W/m2
22:30 39.6 °F 37.9 °F 29.2 in East 2 mph 4 mph 94% 0.02 in 0 W/m2
22:35 39.6 °F 37.9 °F 29.2 in ENE 2.9 mph 5 mph 94% 0.02 in 0 W/m2
22:40 39.6 °F 37.9 °F 29.2 in Calm   9 mph 94% 0.02 in 0 W/m2
22:45 39.6 °F 37.9 °F 29.2 in ENE 2.9 mph 7 mph 94% 0.02 in 0 W/m2
22:50 39.6 °F 37.9 °F 29.2 in NNE 2 mph 8 mph 94% 0.02 in 0 W/m2
22:55 39.7 °F 38.1 °F 29.2 in ENE 4.9 mph 11 mph 94% 0.02 in 0 W/m2
23:00 39.7 °F 38.1 °F 29.2 in ENE 6 mph 6 mph 94% 0.02 in 0 W/m2
23:05 39.7 °F 38.1 °F 29.2 in East 2.9 mph 7 mph 94% 0.02 in 0 W/m2
23:10 39.7 °F 38.1 °F 29.2 in ESE 4 mph 5 mph 94% 0.02 in 0 W/m2
23:15 39.7 °F 38.1 °F 29.2 in NNE 2 mph 9 mph 94% 0.02 in 0 W/m2
23:20 39.7 °F 38.1 °F 29.2 in ESE 6.9 mph 9 mph 94% 0.02 in 0 W/m2
23:25 39.7 °F 38.1 °F 29.2 in ENE 6 mph 11 mph 94% 0.02 in 0 W/m2
23:30 39.7 °F 38.1 °F 29.2 in ENE 2.9 mph 5 mph 94% 0.02 in 0 W/m2
23:35 39.7 °F 38.1 °F 29.2 in East 6.9 mph 11 mph 94% 0.02 in 0 W/m2
23:40 39.9 °F 38.3 °F 29.1 in NE 2 mph 7 mph 94% 0.02 in 0 W/m2
23:45 39.9 °F 38.3 °F 29.1 in ENE 4 mph 12 mph 94% 0.02 in 0 W/m2
23:50 39.9 °F 38.7 °F 29.1 in ENE 2 mph 8 mph 95% 0.02 in 0 W/m2
23:55 40.1 °F 38.8 °F 29.1 in SE 8.1 mph 9 mph 95% 0.02 in 0 W/m2
Juneau County Weather
Compliments of Weather Underground - 2 mb